Location: Spring Creek
(38.2870°N, 100.2160°W)
Time: 08:29:02
(UTC+00:00)

Meteor 2-15 - Pass Details

Date: 28 September 2021
Orbit: 937 x 954 km, 82.5° (Epoch: 25 October)

Event Time Altitude Azimuth Distance (km) Brightness Sun altitude
Exits shadow 08:23:42 18° 42° (NE) 2,173 6.8 -45.7°
Drops below altitude 10° 08:25:26 10° 31° (NNE) 2,673 7.3 -45.5°
Sets 08:28:15 0° 20° (NNE) 3,625 8.1 -45.1°
